Home > Time Zones > World Clock > Weather > U.S.A. > Gary > Past weeks

Flag for U.S.A. Weather past 2 weeks in Gary, Indiana, U.S.A.

Now
80 °F

Sunny.


Feels Like: 85 °F
Forecast: 70 / 86 °F
Wind: 6 mph from South

Location: Lansing Municipal Airport

Current Time: Sep 1, 2015 at 7:30:35 PM

Latest Report: Sep 1, 2015 at 6:55 PM


Visibility: 10 mi

Pressure: 30.02 "Hg

Humidity: 76%

Dew point: 72 °F

Location of GaryLocation

Historic Weather in Gary — Graph

°F

Gary temperature yesterday

Maximum temperature yesterday: 85 °F (at 3:55 PM)
Minimum temperature yesterday: 59 °F (at 3:55 AM)
Average temperature yesterday: 72 °F

Past Weeks' High & Low Weather Summary

 TemperatureHumidityPressure
High87 °F (Sep 1, 3:55 PM)100% (Aug 30, 11:15 PM)30.23 "Hg (Aug 30, 11:15 PM)
Low53 °F (Aug 21, 6:15 AM)38% (Aug 20, 6:15 PM)29.68 "Hg (Aug 19, 4:35 AM)
Average68 °F75%30.01 "Hg
* Reported Aug 17 6:15 PM — Sep 1 6:15 PM, Gary, Weather by CustomWeather, © 2015

Note: Actual official high and low records may vary slightly from our data, if they occured in-between our weather recording intervals... More about our weather records

Advertising

Gary weather history for previous 24 hours

 ConditionsComfort  
Time TempWeatherWind HumidityBarometerVisibility
6:15 PM
Tue, Sep 1
83 °FSunny.8 mph67%30.02 "Hg10 mi
5:55 PM84 °FSunny.7 mph65%30.02 "Hg10 mi
4:35 PM87 °FSunny.10 mph60%30.02 "Hg10 mi
4:15 PM86 °FSunny.8 mph61%30.02 "Hg10 mi
3:55 PM87 °FSunny.10 mph59%30.02 "Hg10 mi
3:35 PM86 °FSunny.9 mph60%30.03 "Hg10 mi
3:15 PM85 °FSunny.8 mph61%30.03 "Hg10 mi
2:55 PM85 °FSunny.9 mph63%30.03 "Hg10 mi
2:35 PM84 °FSunny.8 mph65%30.04 "Hg10 mi
2:15 PM84 °FSunny.8 mph65%30.04 "Hg10 mi
1:55 PM83 °FSunny.13 mph64%30.05 "Hg10 mi
1:35 PM83 °FSunny.13 mph63%30.05 "Hg10 mi
1:15 PM82 °FSunny.12 mph65%30.05 "Hg10 mi
12:55 PM81 °FScattered clouds.13 mph69%30.07 "Hg10 mi
12:35 PM80 °FBroken clouds.18 mph72%30.08 "Hg10 mi
12:15 PM79 °FMostly cloudy.17 mph76%30.09 "Hg10 mi
11:55 AM81 °FOvercast.15 mph75%30.09 "Hg10 mi
11:35 AM81 °FThundershowers. Overcast.13 mph74%30.09 "Hg10 mi
11:15 AM82 °FBroken clouds.12 mph74%30.08 "Hg10 mi
10:55 AM82 °FScattered clouds.10 mph75%30.08 "Hg10 mi
10:15 AM80 °FScattered clouds.8 mph76%30.08 "Hg10 mi
9:55 AM79 °FSunny.6 mph77%30.08 "Hg10 mi
9:35 AM78 °FSunny.5 mph80%30.08 "Hg10 mi
9:15 AM76 °FSunny.6 mph83%30.08 "Hg10 mi
8:55 AM75 °FSunny.7 mph85%30.08 "Hg10 mi
8:35 AM74 °FSunny.6 mph87%30.08 "Hg10 mi
8:15 AM73 °FSunny.7 mph89%30.08 "Hg7 mi
7:55 AM72 °FSunny.8 mph92%30.08 "Hg7 mi
7:35 AM71 °FScattered clouds.7 mph95%30.08 "Hg7 mi
7:15 AM70 °FFog.3 mph97%30.08 "Hg5 mi
6:55 AM68 °FFog.No wind97%30.08 "Hg5 mi
6:35 AM69 °FFog.3 mph98%30.06 "Hg5 mi
6:15 AM68 °FFog.No wind96%30.06 "Hg5 mi
5:55 AM68 °FPassing clouds.5 mph97%30.06 "Hg7 mi
5:35 AM68 °FFog.5 mph97%30.05 "Hg5 mi
5:15 AM68 °FFog.5 mph97%30.05 "Hg5 mi
4:55 AM69 °FFog.3 mph98%30.06 "Hg5 mi
4:35 AM69 °FFog.No wind97%30.05 "Hg5 mi
4:15 AM69 °FClear.3 mph96%30.05 "Hg7 mi
3:55 AM69 °FFog.3 mph98%30.05 "Hg5 mi
3:35 AM69 °FFog.No wind97%30.05 "Hg5 mi
3:15 AM70 °FPassing clouds.No wind96%30.05 "Hg7 mi
2:55 AM70 °FFog.No wind97%30.05 "Hg5 mi
2:35 AM69 °FFog.No wind96%30.05 "Hg5 mi
2:15 AM70 °FPartly cloudy.3 mph95%30.06 "Hg7 mi
1:55 AM70 °FPassing clouds.3 mph96%30.06 "Hg7 mi
1:35 AM70 °FClear.No wind95%30.05 "Hg7 mi
1:15 AM69 °FClear.No wind96%30.06 "Hg7 mi
12:55 AM70 °FClear.No wind94%30.06 "Hg7 mi
12:35 AM71 °FClear.3 mph93%30.06 "Hg7 mi
12:15 AM71 °FClear.No wind91%30.05 "Hg7 mi
11:55 PM
Mon, Aug 31
71 °FClear.No wind90%30.06 "Hg7 mi
10:35 PM71 °FClear.3 mph91%30.05 "Hg7 mi
9:55 PM73 °FClear.No wind87%30.05 "Hg10 mi
9:35 PM73 °FClear.No wind86%30.05 "Hg10 mi
9:15 PM73 °FClear.3 mph85%30.04 "Hg10 mi
8:55 PM74 °FClear.No wind85%30.04 "Hg10 mi
8:35 PM73 °FClear.5 mph84%30.04 "Hg10 mi
8:15 PM74 °FClear.5 mph82%30.03 "Hg10 mi
7:55 PM75 °FClear.3 mph80%30.02 "Hg10 mi
7:35 PM76 °FPassing clouds.3 mph77%30.02 "Hg10 mi
7:15 PM78 °FScattered clouds.5 mph73%30.01 "Hg10 mi
Weather by CustomWeather, © 2015

See weather overviewHow to use our weather pages